RH
87 84 90 87 86 87 84 83 81 88 86 84 86 87 87 89 88 86 85 73 79 74 86 73 69 65 75 88 70 80 88 83 61 51 48 46 44 40 36 45 57 55 74 80 64
90 90 87 91 85 85 90 86 81 85 89 85 85 87 88 93 83 77 70 69 74 76 79 80 84 76 88 90 82 84 84 73 52 52 47 47 41 41 45 48 75 91 89 85 89
91 88 93 92 87 85 81 89 89 83 86 84 85 86 88 82 82 65 66 71 76 82 73 82 70 83 80 86 80 76 87 66 67 58 46 49 45 41 51 56 48 92 91 92 97
94 89 96 95 89 88 81 83 94 86 91 85 81 82 85 74 79 64 76 76 60 68 79 73 81 90 82 88 78 93 65 57 62 67 54 52 46 54 50 50 43 69 84 88 95
95 90 96 97 90 89 86 84 92 92 87 94 80 83 76 79 66 60 62 65 76 73 72 83 90 85 85 72 79 80 88 66 71 70 65 54 56 54 54 44 39 50 78 88 86
94 90 91 94 92 91 87 82 94 96 89 92 80 81 78 85 49 54 51 55 68 76 73 81 90 82 79 68 82 84 84 85 77 84 70 67 60 50 50 45 42 42 48 74 81
94 96 90 95 94 89 86 81 93 95 94 89 80 81 70 69 48 47 49 54 59 70 79 88 93 90 88 75 72 80 89 87 93 88 88 72 67 60 45 43 45 42 46 44 62
96 93 92 91 92 87 77 82 91 95 95 89 80 84 77 49 46 52 53 58 60 73 75 89 92 90 94 67 69 86 92 94 80 83 70 62 71 55 45 43 46 43 41 44 41
97 90 94 76 73 72 76 82 88 90 90 88 75 78 66 49 58 62 65 60 63 78 83 81 82 92 86 84 91 84 99 94 81 86 84 61 66 51 46 47 49 49 45 40 42
91 94 87 74 75 71 74 75 76 88 62 79 65 62 53 59 63 67 69 66 66 78 79 80 89 94 89 89 97 94 95 87 81 86 74 80 65 49 42 46 49 49 46 44 41
93 92 77 78 78 88 68 78 83 80 70 57 48 48 41 65 69 67 68 70 74 78 95 90 96 100 84 68 65 65 72 70 74 72 92 82 65 58 50 47 49 50 47 43 41
95 78 80 81 88 81 76 89 66 66 84 43 48 45 41 53 82 68 65 79 90 96 94 96 96 82 70 66 61 62 66 64 57 59 78 70 68 60 55 50 50 49 49 45 40
91 80 78 78 77 77 77 78 62 64 86 59 48 55 53 61 77 81 70 83 94 96 95 90 79 81 77 73 64 66 65 62 67 67 68 65 77 72 57 54 51 46 43 42 42
86 80 78 76 80 75 79 67 59 67 98 74 62 57 57 77 85 74 77 78 90 99 96 96 79 80 85 75 59 61 51 57 68 86 92 70 86 75 61 63 56 54 49 44 39
87 84 79 79 82 73 70 66 65 70 96 58 65 45 55 66 72 88 87 94 95 94 85 98 90 91 86 66 64 72 46 63 77 71 77 80 79 57 66 72 61 52 51 44 39
86 82 82 77 72 73 71 67 68 92 90 84 58 57 59 62 80 84 91 88 68 73 86 95 89 90 92 68 54 50 77 80 69 66 78 74 70 58 62 58 49 44 45 42 39
86 82 82 74 80 74 71 74 98 90 77 72 64 53 70 81 79 74 84 83 88 88 99 98 97 81 73 61 51 52 63 98 96 86 78 48 54 51 34 31 31 32 32 32 32
84 82 77 83 75 72 74 92 90 67 90 56 50 54 73 70 79 80 86 84 61 84 100 99 98 91 80 61 60 52 53 81 85 93 74 47 59 44 31 31 30 29 29 30 31
85 84 80 81 79 80 93 99 94 73 60 56 55 70 69 61 70 88 78 79 72 65 90 100 100 82 77 67 55 54 75 46 67 54 81 59 43 34 30 32 33 37 38 38 35
82 80 77 72 79 85 97 88 82 72 71 52 69 57 70 62 65 72 82 65 73 66 62 78 98 88 70 60 49 54 43 67 85 63 58 63 44 46 39 46 43 42 41 41 41
77 92 83 78 89 96 99 79 71 67 66 73 72 62 54 56 58 69 87 62 61 66 64 60 78 95 69 85 75 66 67 60 64 76 84 58 48 31 40 42 45 40 37 39 42
86 98 81 90 97 93 92 73 55 67 67 73 77 73 68 43 58 73 82 68 53 58 61 64 76 92 86 80 69 65 60 54 82 70 73 74 53 32 39 41 41 39 32 38 42
95 97 85 84 97 80 66 67 60 64 68 73 70 65 60 62 64 66 69 58 55 63 70 60 78 96 95 74 62 71 59 53 61 70 78 73 53 34 33 32 32 37 42 43 40
83 98 96 94 88 91 75 74 72 56 59 54 64 64 54 59 54 64 73 59 55 59 61 59 70 74 84 74 73 76 62 58 68 86 66 69 47 39 47 49 51 52 50 48 47
85 87 72 95 96 87 69 66 72 70 56 53 56 67 54 63 59 69 61 68 62 60 57 66 79 72 62 64 64 62 60 63 71 65 72 57 54 54 50 56 53 53 53 54 54
91 86 78 85 75 78 69 64 67 72 65 59 58 61 61 74 74 66 58 55 60 63 60 66 88 70 85 56 59 66 61 58 61 62 62 58 58 51 56 55 60 65 64 66 65
70 63 75 79 79 78 77 60 70 70 62 63 59 75 82 73 58 55 55 58 57 68 71 72 82 92 86 58 57 69 61 56 55 51 57 70 64 62 64 61 64 68 64 66 63
Wind_Speed
16 16 15 13 14 15 13 13 14 13 13 14 15 13 14 12 11 8 10 12 12 24 21 10 15 17 6 4 6 5 5 6 5 4 7 7 5 0 1 6 5 4 3 6 30
17 17 14 12 13 15 14 12 12 13 13 13 13 14 14 12 12 16 17 15 13 16 18 14 8 8 4 7 5 6 6 7 2 1 10 8 7 6 3 6 4 9 10 9 18
16 18 16 12 12 14 16 15 11 12 12 13 13 15 17 12 5 2 6 3 10 7 9 14 14 7 4 3 5 9 7 3 1 4 5 8 4 4 7 4 2 9 10 7 5
16 18 17 11 13 13 15 15 15 12 13 12 13 15 17 6 3 3 5 6 5 3 9 7 3 6 5 8 4 5 9 11 0 1 2 6 6 4 5 5 6 8 11 8 4
16 17 15 12 13 13 14 14 13 11 11 11 12 13 9 3 4 2 4 7 4 5 7 3 4 7 6 8 3 8 4 11 4 1 2 7 5 6 8 7 7 8 7 10 6
17 16 14 14 13 14 11 13 13 12 10 11 10 12 4 4 4 1 3 6 5 4 5 1 5 6 4 6 10 6 8 5 9 7 5 5 4 4 4 6 6 8 8 8 7
15 14 15 13 13 13 10 13 13 11 11 10 8 7 5 10 3 4 5 6 5 4 6 9 7 5 5 5 9 10 10 6 8 7 4 5 3 1 1 6 7 7 7 7 9
14 13 13 13 12 13 12 15 12 11 10 9 7 5 5 2 3 2 5 2 2 1 5 5 7 4 4 2 6 7 1 5 5 5 3 4 9 5 5 3 4 4 3 7 6
13 11 12 14 13 13 12 16 12 10 9 7 5 4 5 3 0 12 5 3 0 3 7 5 3 3 5 5 4 2 3 3 4 3 4 2 2 8 7 7 8 6 6 6 7
12 11 11 12 11 12 15 12 7 7 5 4 8 4 5 3 1 4 3 3 3 5 2 4 4 4 2 6 8 8 7 5 7 1 3 3 6 4 9 9 9 9 9 8 7
11 10 11 10 10 8 11 4 3 1 3 4 2 3 3 3 2 3 2 1 3 4 2 2 1 5 3 3 8 10 9 8 5 8 5 14 12 10 7 6 8 7 8 9 9
10 9 9 9 8 7 4 1 3 1 3 4 5 6 12 2 3 2 2 2 2 4 6 3 9 5 6 5 4 10 12 5 7 11 10 9 11 8 7 5 7 9 8 9 7
9 7 8 6 7 1 5 5 1 4 1 1 2 4 1 3 2 3 1 2 3 5 7 4 4 5 1 3 7 4 7 7 9 9 6 7 5 7 8 5 6 8 8 7 10
7 6 5 3 1 2 2 4 1 3 3 3 1 1 2 7 2 3 1 1 4 4 5 4 6 4 3 8 6 5 13 13 10 7 4 5 3 6 15 10 10 9 8 9 8
6 5 3 5 1 1 3 2 2 2 4 4 4 1 4 3 2 1 2 3 7 9 3 2 8 6 15 10 6 7 17 14 12 5 4 2 2 6 6 11 12 12 9 9 9
6 5 6 7 3 2 4 3 1 4 3 5 3 3 3 6 2 2 4 6 3 9 9 6 3 3 5 2 12 1 11 9 3 1 2 6 5 5 4 7 5 3 8 10 8
5 13 10 8 3 4 5 2 2 4 3 3 3 2 4 4 4 5 5 3 3 4 4 5 5 5 2 2 5 4 7 3 2 3 3 2 3 7 4 4 6 8 6 7 7
14 13 10 4 7 6 2 2 5 3 4 4 2 4 2 3 1 4 3 4 3 6 3 2 3 6 8 3 4 1 3 4 4 3 3 1 5 4 3 5 7 7 5 7 8
16 12 4 9 8 5 2 1 2 4 4 3 2 3 2 1 3 4 2 4 5 1 4 3 4 5 1 4 3 2 4 3 5 3 4 3 3 4 3 7 8 8 9 8 7
14 10 6 8 7 3 1 3 4 3 1 4 2 2 1 4 3 2 2 3 2 3 3 3 5 5 3 3 3 5 3 3 3 3 3 3 3 3 5 8 8 7 6 7 6
9 4 4 7 3 1 2 2 4 2 0 2 1 1 2 3 5 3 2 2 2 2 4 3 3 1 2 5 4 5 2 3 4 3 3 2 4 5 10 9 9 5 3 3 4
7 3 7 8 2 2 2 3 4 4 2 1 0 2 1 2 6 4 3 2 2 2 2 2 4 3 2 5 4 0 1 1 3 3 1 3 3 3 7 7 7 6 3 1 2
4 3 5 4 3 3 3 3 3 5 2 4 2 0 2 3 4 6 4 5 5 4 2 3 2 3 3 5 2 2 2 1 2 2 2 4 3 2 5 4 5 7 7 6 3
3 4 2 2 2 2 5 4 3 2 4 3 3 3 1 3 5 4 3 2 4 3 4 3 3 5 5 3 5 4 4 4 4 2 1 4 2 4 7 8 7 7 6 6 6
3 4 5 6 4 5 1 8 6 4 3 4 3 5 1 3 5 4 4 3 4 3 4 3 3 3 3 4 3 2 5 7 6 5 5 3 2 5 3 5 3 2 5 6 7
4 4 2 4 4 6 1 4 7 4 3 4 4 4 8 4 4 6 5 2 2 0 2 3 1 2 3 3 3 1 3 4 7 4 5 4 5 4 3 2 6 7 7 7 7
4 3 4 6 5 5 4 3 7 7 3 6 7 7 7 2 3 5 5 4 4 5 3 3 4 3 2 3 3 4 5 4 1 2 7 7 2 2 6 6 7 6 7 8 9
Wind_Direction
338 329 337 331 338 334 327 329 327 331 336 339 340 338 334 322 306 276 256 250 233 233 298 276 217 221 184 239 212 131 191 209 206 218 171 146 145 237 147 93 43 82 114 127 143
325 321 332 325 326 334 324 318 321 324 331 335 335 341 336 334 300 272 262 268 226 231 275 267 213 214 176 213 200 185 196 203 134 19 176 161 138 152 113 105 80 94 90 130 157
320 323 318 320 321 322 330 317 312 312 319 323 328 330 333 326 278 280 321 274 247 253 267 278 245 200 204 216 198 166 198 194 94 301 167 142 98 136 134 72 99 149 140 137 182
313 319 322 318 320 314 329 316 319 311 323 321 325 331 326 306 285 6 3 4 280 233 242 271 213 176 208 191 213 170 229 220 289 236 60 114 118 55 118 121 113 140 146 136 163
313 319 326 317 318 316 325 325 308 312 316 321 326 334 342 255 258 304 20 358 328 236 180 22 284 185 214 185 202 180 216 188 198 75 16 74 83 112 112 108 82 110 130 142 139
308 315 321 314 312 312 325 327 316 322 317 319 322 333 289 272 312 258 318 332 340 267 159 160 339 269 213 204 186 147 143 223 168 214 255 111 77 96 194 135 114 108 118 138 159
305 312 318 316 318 317 321 327 310 309 319 312 315 330 276 260 286 14 344 298 323 265 165 185 19 350 348 196 130 128 129 327 118 151 242 185 24 184 174 137 147 146 138 128 154
304 315 313 314 315 317 317 321 301 302 302 303 306 313 256 231 265 308 318 310 322 69 165 153 350 304 238 296 99 182 83 144 48 358 248 79 213 224 227 132 209 194 168 159 172
300 308 308 313 317 325 318 314 295 296 290 281 296 187 278 200 356 321 259 255 223 102 71 85 19 258 187 147 109 114 123 179 9 115 250 189 138 273 211 209 217 231 242 189 180
300 303 308 311 312 320 319 306 286 291 282 241 259 301 266 213 302 337 334 230 245 128 69 58 30 283 197 159 166 159 123 166 179 98 212 304 266 255 222 190 213 199 213 243 180
293 301 310 307 317 335 328 355 60 19 257 215 303 259 325 124 140 319 6 343 162 161 112 40 101 239 222 139 110 115 115 145 164 152 211 198 225 252 268 218 217 241 221 220 229
279 302 298 309 315 325 282 255 95 253 315 205 252 253 249 62 315 345 80 90 243 133 113 128 219 277 313 298 167 157 137 144 127 171 207 180 221 241 250 240 206 218 223 221 203
272 287 298 317 314 242 212 279 292 359 213 187 263 279 101 56 323 333 94 145 93 111 166 150 140 205 81 283 224 144 162 169 137 170 201 158 287 263 262 218 259 250 232 217 208
267 273 283 284 302 148 206 175 124 17 56 291 345 192 240 109 301 96 101 167 143 119 100 80 155 120 255 226 173 172 203 163 128 145 163 152 236 231 230 238 236 251 253 237 222
246 263 227 209 140 112 141 117 50 63 69 305 302 254 249 249 195 171 145 164 135 188 179 147 123 153 151 169 155 248 164 155 142 212 111 109 42 264 152 216 228 236 228 232 220
251 219 169 171 180 126 145 153 142 58 278 340 272 285 291 32 71 247 199 214 204 70 63 55 44 13 7 95 181 120 81 49 46 296 61 198 160 290 205 202 196 190 242 231 214
163 146 147 157 148 157 145 131 98 90 360 282 260 276 90 5 36 25 15 29 67 88 32 43 334 312 187 91 50 113 97 99 52 42 182 201 118 242 309 95 134 139 110 87 65
148 142 140 164 145 148 143 139 76 149 200 258 235 257 118 182 53 41 2 20 92 69 107 93 100 343 348 29 177 117 115 140 133 155 209 336 189 259 167 108 78 67 76 51 43
147 131 152 166 147 133 116 103 143 176 231 205 190 306 78 131 120 95 1 355 54 80 110 114 60 311 296 329 30 318 50 183 99 44 79 227 260 28 100 73 70 60 48 35 35
151 140 146 170 146 142 142 105 145 183 271 204 234 243 123 152 140 119 73 293 41 360 43 124 97 322 324 333 19 93 186 56 15 107 169 245 187 215 129 118 91 69 66 53 35
143 119 172 159 137 127 150 175 125 201 149 32 197 357 176 197 179 131 143 110 155 289 341 128 101 276 31 14 13 14 20 44 115 135 155 139 288 221 159 135 122 141 152 146 116
145 107 165 161 162 215 180 200 128 156 194 219 54 261 280 97 25 85 98 111 173 158 50 44 102 75 94 298 308 172 286 86 111 294 44 125 274 350 123 129 140 181 83 71 227
116 114 170 197 172 192 149 149 182 155 216 171 186 334 327 75 97 105 93 356 90 43 46 353 78 90 26 342 342 282 238 18 44 61 188 122 251 156 136 111 25 44 25 18 324
109 130 152 194 262 206 156 163 151 182 159 166 152 230 238 88 84 105 89 94 35 77 13 33 121 154 176 209 151 182 201 188 115 111 212 204 129 25 24 58 48 36 26 9 359
139 193 169 178 232 216 269 154 147 150 194 201 195 224 227 95 94 94 73 86 29 16 11 76 108 82 82 62 88 137 190 194 183 189 157 227 204 100 107 111 97 69 11 16 13
144 144 136 171 158 157 236 200 156 108 130 208 181 84 94 94 174 134 154 170 149 311 5 33 75 87 344 37 48 351 271 233 210 186 237 242 274 72 46 37 33 14 37 17 356
189 100 123 163 149 125 202 169 142 122 68 60 119 101 87 136 86 111 142 143 156 152 149 102 118 80 250 358 22 324 244 265 198 111 201 220 94 21 22 3 9 30 28 6 348